Home > Weather > Southend-on-Sea > Past weeks

Flag for United Kingdom Past Weather in Southend-on-Sea, England, United Kingdom — Yesterday and Last 2 Weeks

Now
68 °F

Partly sunny.


Feels Like: 68 °F
Forecast: 60 / 70 °F
Wind: 12 mph from Southwest

Location: Southend Airport-On-Sea

Current Time: Jul 28, 2016 at 7:31:41 PM

Latest Report: Jul 28, 2016 at 6:50 PM


Visibility: N/A

Pressure: 29.89 "Hg

Humidity: 78%

Dew Point: 61 °F

Location of Southend-on-SeaLocation

Past Weather in Southend-on-Sea — Graph

°F

Southend-on-Sea Temperature Yesterday

Maximum temperature yesterday: 75 °F (at 4:50 PM)
Minimum temperature yesterday: 59 °F (at 6:20 AM)
Average temperature yesterday: 67 °F

High & Low Weather Summary for the Past Weeks

 TemperatureHumidityPressure
High86 °F (Jul 20, 5:20 PM)94% (Jul 19, 4:50 AM)30.30 "Hg (Jul 19, 4:50 AM)
Low50 °F (Jul 15, 4:50 AM)34% (Jul 18, 2:50 PM)29.74 "Hg (Jul 20, 7:50 AM)
Average68 °F66%30.09 "Hg
* Reported Jul 13 6:50 PM — Jul 28 6:20 PM, Southend-on-Sea, Weather by CustomWeather, © 2016

Note: Actual official high and low records may vary slightly from our data, if they occured in-between our weather recording intervals... More about our weather records

Advertising

Southend-on-Sea Weather History for the Previous 24 Hours

Scroll right to see more
 ConditionsComfort  
Time TempWeatherWind HumidityBarometerVisibility
6:20 PM
Thu, Jul 28
64 °FPartly sunny.14 mph83%29.89 "HgN/A
5:50 PM64 °FPartly sunny.14 mph83%29.92 "HgN/A
5:20 PM64 °FPartly sunny.14 mph83%29.92 "HgN/A
4:50 PM63 °FSprinkles. Partly sunny.14 mph83%29.92 "HgN/A
4:20 PM68 °FPartly sunny.14 mph60%29.92 "HgN/A
3:50 PM66 °FPartly sunny.16 mph60%29.92 "HgN/A
3:20 PM70 °FPartly sunny.15 mph57%29.92 "HgN/A
2:50 PM72 °FPartly sunny.14 mph50%29.92 "HgN/A
2:20 PM73 °FScattered clouds.12 mph50%29.92 "HgN/A
1:50 PM73 °FScattered clouds.10 mph50%29.92 "HgN/A
1:20 PM73 °FPassing clouds.10 mph47%29.92 "HgN/A
12:50 PM72 °FSunny.12 mph50%29.95 "Hg10 mi
12:20 PM70 °FPassing clouds.9 mph50%29.95 "HgN/A
11:50 AM70 °FPassing clouds.7 mph50%29.95 "HgN/A
11:20 AM68 °FSunny.2 mph53%29.95 "Hg10 mi
10:50 AM68 °FPassing clouds.5 mph53%29.98 "HgN/A
10:20 AM66 °FPassing clouds.5 mph60%29.98 "HgN/A
9:50 AM64 °FPassing clouds.5 mph64%29.98 "HgN/A
9:20 AM64 °FPassing clouds.5 mph64%29.98 "HgN/A
8:50 AM63 °FScattered clouds.5 mph68%29.98 "HgN/A
8:20 AM61 °FScattered clouds.3 mph68%29.98 "HgN/A
7:50 AM61 °FScattered clouds.5 mph72%29.98 "HgN/A
7:20 AM59 °FScattered clouds.2 mph72%29.98 "HgN/A
6:50 AM57 °FScattered clouds.2 mph77%29.98 "HgN/A
6:20 AM57 °FScattered clouds.2 mph77%29.95 "HgN/A
5:50 AM57 °FPassing clouds.2 mph77%29.95 "HgN/A
5:20 AM59 °FPassing clouds.5 mph72%29.95 "HgN/A
4:50 AM59 °FPassing clouds.5 mph77%29.95 "HgN/A
4:20 AM59 °FPassing clouds.5 mph77%29.95 "HgN/A
3:50 AM59 °FClear.5 mph77%29.95 "Hg10 mi
2:50 AM63 °FPassing clouds.7 mph73%29.95 "HgN/A
1:50 AM63 °FClear.6 mph73%29.95 "Hg10 mi
12:50 AM64 °FPassing clouds.3 mph83%29.95 "HgN/A
12:20 AM64 °FPassing clouds.3 mph83%29.98 "HgN/A
11:50 PM
Wed, Jul 27
64 °FPassing clouds.5 mph83%29.98 "HgN/A
11:20 PM64 °FPassing clouds.6 mph88%29.98 "HgN/A
10:50 PM66 °FPassing clouds.7 mph83%29.98 "HgN/A
10:20 PM64 °FSprinkles. Passing clouds.3 mph88%29.95 "HgN/A
9:50 PM66 °FSprinkles. Scattered clouds.6 mph83%29.95 "HgN/A
9:20 PM68 °FScattered showers. Partly sunny.6 mph83%29.95 "HgN/A
8:50 PM66 °FScattered showers. Partly sunny.No wind83%29.95 "HgN/A
8:20 PM72 °FRain showers. Partly sunny.10 mph65%29.95 "HgN/A
7:50 PM72 °FScattered clouds.9 mph65%29.95 "HgN/A
7:20 PM72 °FScattered clouds.9 mph65%29.95 "HgN/A
Weather by CustomWeather, © 2016

See weather overviewHow to use our weather pages